| time (UTC) | temp F | wind direction | speed knots | gust knots | rain 1hr in | rain 24hr in | rain mn in | humidity % | barometer mb |
| 20260903074528 | 54 | 54 | 0.0 | 6.1 | 0.00 | 0.12 | 0.00 | 88 | 1008.2 |
| 20260903074014 | 54 | 55 | 1.7 | 6.1 | 0.00 | 0.12 | 0.00 | 88 | 1008.2 |
| 20260903073516 | 54 | 73 | 2.6 | 6.1 | 0.00 | 0.12 | 0.00 | 88 | 1008.2 |
| 20260903073030 | 54 | 74 | 0.9 | 4.3 | 0.00 | 0.12 | 0.00 | 88 | 1008.2 |
| 20260903072504 | 54 | 98 | 0.0 | 4.3 | 0.00 | 0.12 | 0.00 | 88 | 1008.1 |
| 20260903072009 | 54 | 92 | 1.7 | 4.3 | 0.00 | 0.12 | 0.00 | 88 | 1008.1 |
| 20260903071518 | 54 | 78 | 0.0 | 3.5 | 0.00 | 0.12 | 0.00 | 88 | 1008.1 |
| 20260903071011 | 54 | 69 | 0.9 | 3.5 | 0.00 | 0.12 | 0.00 | 87 | 1008.1 |
| 20260903070511 | 54 | 27 | 0.9 | 3.5 | 0.00 | 0.12 | 0.00 | 88 | 1008.1 |
| 20260903070026 | 54 | 90 | 0.9 | 2.6 | 0.00 | 0.12 | 0.00 | 87 | 1008.1 |
| 20260903065512 | 54 | 11 | 0.0 | 3.5 | 0.00 | 0.12 | 0.12 | 88 | 1008.1 |
| 20260903065012 | 54 | 89 | 0.9 | 5.2 | 0.00 | 0.12 | 0.12 | 88 | 1008.1 |
| 20260903064527 | 55 | 98 | 1.7 | 5.2 | 0.00 | 0.12 | 0.12 | 88 | 1008.0 |
| 20260903064012 | 55 | 101 | 0.9 | 5.2 | 0.00 | 0.12 | 0.12 | 88 | 1008.0 |
| 20260903063514 | 55 | 81 | 0.0 | 2.6 | 0.00 | 0.12 | 0.12 | 87 | 1008.0 |
| 20260903063041 | 55 | 57 | 0.0 | 1.7 | 0.00 | 0.12 | 0.12 | 87 | 1008.0 |
| 20260903062514 | 55 | 40 | 0.0 | 3.5 | 0.00 | 0.12 | 0.12 | 87 | 1007.9 |
| 20260903062018 | 55 | 103 | 0.9 | 3.5 | 0.00 | 0.12 | 0.12 | 87 | 1007.9 |
| 20260903061537 | 55 | 95 | 0.9 | 3.5 | 0.01 | 0.12 | 0.12 | 87 | 1007.9 |
| 20260903061009 | 55 | 80 | 1.7 | 3.5 | 0.01 | 0.12 | 0.12 | 87 | 1008.0 |
| 20260903060510 | 55 | 52 | 0.0 | 3.5 | 0.01 | 0.12 | 0.12 | 87 | 1007.9 |
| 20260903060048 | 55 | 87 | 1.7 | 3.5 | 0.01 | 0.12 | 0.12 | 87 | 1007.9 |
| 20260903055513 | 55 | 61 | 0.9 | 3.5 | 0.01 | 0.12 | 0.12 | 87 | 1008.0 |
| 20260903055013 | 55 | 77 | 0.0 | 3.5 | 0.01 | 0.12 | 0.12 | 87 | 1008.0 |
| 20260903054532 | 56 | 71 | 0.0 | 5.2 | 0.01 | 0.12 | 0.12 | 87 | 1008.0 |
| 20260903054014 | 56 | 109 | 0.9 | 5.2 | 0.01 | 0.12 | 0.12 | 87 | 1008.0 |
| 20260903053504 | 56 | 75 | 1.7 | 3.5 | 0.01 | 0.12 | 0.12 | 88 | 1008.1 |
| 20260903053006 | 56 | 87 | 0.0 | 5.2 | 0.01 | 0.12 | 0.12 | 87 | 1008.1 |
| 20260903052507 | 56 | 79 | 0.0 | 5.2 | 0.01 | 0.12 | 0.12 | 88 | 1008.0 |
| 20260903052006 | 56 | 92 | 0.9 | 5.2 | 0.01 | 0.12 | 0.12 | 88 | 1008.0 |
| 20260903051510 | 56 | 54 | 0.9 | 4.3 | 0.00 | 0.11 | 0.11 | 88 | 1007.9 |
| 20260903051008 | 56 | 82 | 1.7 | 4.3 | 0.00 | 0.11 | 0.11 | 88 | 1007.8 |
| 20260903050507 | 56 | 98 | 0.9 | 4.3 | 0.00 | 0.11 | 0.11 | 88 | 1007.8 |
| 20260903050023 | 56 | 80 | 0.9 | 5.2 | 0.00 | 0.11 | 0.11 | 88 | 1007.9 |
| 20260903045509 | 56 | 311 | 1.7 | 7.0 | 0.00 | 0.11 | 0.11 | 88 | 1007.9 |
| 20260903045009 | 56 | 78 | 1.7 | 7.0 | 0.00 | 0.11 | 0.11 | 88 | 1007.8 |
| 20260903044525 | 56 | 82 | 2.6 | 6.1 | 0.00 | 0.11 | 0.11 | 88 | 1007.7 |
| 20260903044004 | 56 | 87 | 0.9 | 5.2 | 0.00 | 0.11 | 0.11 | 88 | 1007.7 |
| 20260903043504 | 56 | 90 | 0.9 | 5.2 | 0.00 | 0.11 | 0.11 | 88 | 1007.6 |
| 20260903043006 | 56 | 68 | 0.0 | 5.2 | 0.00 | 0.11 | 0.11 | 88 | 1007.6 |
| 20260903042515 | 56 | 66 | 0.9 | 5.2 | 0.01 | 0.11 | 0.11 | 88 | 1007.6 |
| 20260903042003 | 56 | 105 | 1.7 | 5.2 | 0.01 | 0.11 | 0.11 | 88 | 1007.6 |
| 20260903041509 | 57 | 61 | 0.9 | 5.2 | 0.01 | 0.11 | 0.11 | 88 | 1007.6 |
| 20260903041006 | 57 | 115 | 0.9 | 6.1 | 0.01 | 0.11 | 0.11 | 88 | 1007.5 |
| 20260903040504 | 57 | 103 | 1.7 | 6.1 | 0.01 | 0.11 | 0.11 | 88 | 1007.5 |
| 20260903040017 | 57 | 154 | 0.9 | 6.1 | 0.01 | 0.11 | 0.11 | 87 | 1007.4 |
| 20260903035507 | 57 | 84 | 2.6 | 8.7 | 0.01 | 0.11 | 0.11 | 87 | 1007.4 |
| 20260903035010 | 57 | 108 | 1.7 | 8.7 | 0.01 | 0.11 | 0.11 | 87 | 1007.4 |
| 20260903034522 | 57 | 108 | 1.7 | 7.0 | 0.01 | 0.11 | 0.11 | 86 | 1007.4 |
| 20260903034010 | 58 | 98 | 2.6 | 7.0 | 0.01 | 0.11 | 0.11 | 86 | 1007.4 |
| 20260903033511 | 58 | 120 | 1.7 | 8.7 | 0.01 | 0.11 | 0.11 | 85 | 1007.4 |
| 20260903033009 | 58 | 138 | 1.7 | 8.7 | 0.01 | 0.11 | 0.11 | 85 | 1007.3 |
| 20260903032507 | 58 | 97 | 0.9 | 6.1 | 0.00 | 0.10 | 0.10 | 84 | 1007.2 |
| 20260903032004 | 58 | 84 | 1.7 | 6.1 | 0.00 | 0.10 | 0.10 | 84 | 1007.2 |
| 20260903031508 | 58 | 144 | 2.6 | 7.8 | 0.00 | 0.10 | 0.10 | 84 | 1007.1 |
| 20260903031003 | 58 | 111 | 2.6 | 7.8 | 0.01 | 0.10 | 0.10 | 83 | 1007.1 |
| 20260903030504 | 58 | 104 | 2.6 | 7.8 | 0.01 | 0.10 | 0.10 | 84 | 1006.9 |
| 20260903030010 | 59 | 136 | 3.5 | 7.8 | 0.01 | 0.10 | 0.10 | 84 | 1006.8 |
| 20260903025507 | 59 | 121 | 1.7 | 7.8 | 0.01 | 0.10 | 0.10 | 85 | 1006.7 |
| 20260903025008 | 59 | 107 | 2.6 | 7.8 | 0.01 | 0.10 | 0.10 | 85 | 1006.7 |
| 20260903024517 | 59 | 84 | 1.7 | 9.6 | 0.01 | 0.10 | 0.10 | 86 | 1006.6 |
| 20260903024009 | 59 | 130 | 4.3 | 9.6 | 0.01 | 0.10 | 0.10 | 85 | 1006.7 |
| 20260903023511 | 59 | 79 | 0.9 | 7.0 | 0.01 | 0.10 | 0.10 | 85 | 1006.6 |
| 20260903023045 | 59 | 99 | 2.6 | 7.0 | 0.01 | 0.10 | 0.10 | 85 | 1006.5 |
| 20260903022512 | 59 | 146 | 1.7 | 4.3 | 0.01 | 0.10 | 0.10 | 85 | 1006.4 |
| 20260903022015 | 59 | 13 | 0.9 | 4.3 | 0.01 | 0.10 | 0.10 | 85 | 1006.2 |
| 20260903021512 | 60 | 89 | 0.9 | 6.1 | 0.02 | 0.10 | 0.10 | 86 | 1006.1 |
| 20260903021007 | 60 | 164 | 1.7 | 7.0 | 0.01 | 0.09 | 0.09 | 86 | 1005.9 |
| 20260903020503 | 60 | 79 | 2.6 | 7.8 | 0.01 | 0.09 | 0.09 | 86 | 1005.8 |
| 20260903020010 | 60 | 90 | 1.7 | 7.8 | 0.01 | 0.09 | 0.09 | 86 | 1005.9 |
| 20260903015504 | 60 | 154 | 2.6 | 6.1 | 0.01 | 0.09 | 0.09 | 87 | 1006.0 |
| 20260903015005 | 60 | 146 | 1.7 | 6.1 | 0.01 | 0.09 | 0.09 | 88 | 1006.0 |
| 20260903014515 | 60 | 132 | 2.6 | 6.1 | 0.01 | 0.09 | 0.09 | 88 | 1005.9 |
| 20260903014010 | 60 | 142 | 1.7 | 6.1 | 0.01 | 0.09 | 0.09 | 89 | 1005.8 |
| 20260903013510 | 60 | 113 | 0.9 | 5.2 | 0.02 | 0.09 | 0.09 | 90 | 1005.7 |
| 20260903013026 | 60 | 118 | 1.7 | 5.2 | 0.02 | 0.09 | 0.09 | 90 | 1005.7 |
| 20260903012512 | 60 | 116 | 0.9 | 5.2 | 0.02 | 0.09 | 0.09 | 90 | 1005.6 |
| 20260903012017 | 60 | 130 | 1.7 | 5.2 | 0.02 | 0.09 | 0.09 | 91 | 1005.4 |
| 20260903011527 | 60 | 140 | 0.9 | 3.5 | 0.01 | 0.08 | 0.08 | 91 | 1005.4 |
| 20260903011014 | 60 | 118 | 1.7 | 3.5 | 0.02 | 0.08 | 0.08 | 91 | 1005.2 |
| 20260903010503 | 60 | 138 | 0.9 | 2.6 | 0.02 | 0.08 | 0.08 | 91 | 1005.0 |
| 20260903010022 | 60 | 139 | 1.7 | 3.5 | 0.02 | 0.08 | 0.08 | 91 | 1005.0 |
| 20260903005504 | 60 | 121 | 1.7 | 3.5 | 0.02 | 0.08 | 0.08 | 91 | 1004.9 |
| 20260903005003 | 60 | 94 | 0.9 | 2.6 | 0.02 | 0.08 | 0.08 | 90 | 1004.7 |
| 20260903004514 | 60 | 113 | 0.0 | 2.6 | 0.03 | 0.08 | 0.08 | 90 | 1004.5 |
| 20260903004008 | 60 | 99 | 0.9 | 2.6 | 0.03 | 0.08 | 0.08 | 90 | 1004.5 |
| 20260903003507 | 60 | 117 | 0.0 | 2.6 | 0.02 | 0.07 | 0.07 | 91 | 1004.6 |
| 20260903003018 | 59 | 48 | 0.9 | 3.5 | 0.02 | 0.07 | 0.07 | 91 | 1004.6 |
| 20260903002512 | 59 | 68 | 0.9 | 4.3 | 0.03 | 0.07 | 0.07 | 91 | 1004.8 |
| 20260903002011 | 59 | 76 | 0.9 | 4.3 | 0.03 | 0.07 | 0.07 | 90 | 1004.7 |
| 20260903001531 | 59 | 24 | 0.9 | 4.3 | 0.03 | 0.07 | 0.07 | 91 | 1004.8 |
| 20260903001017 | 59 | 51 | 0.9 | 3.5 | 0.02 | 0.06 | 0.06 | 90 | 1004.9 |
| 20260903000517 | 59 | 25 | 0.9 | 3.5 | 0.03 | 0.06 | 0.06 | 90 | 1005.1 |
| 20260903000031 | 59 | 69 | 0.9 | 2.6 | 0.03 | 0.06 | 0.06 | 90 | 1005.3 |
| 20260902235516 | 59 | 13 | 0.9 | 2.6 | 0.03 | 0.06 | 0.06 | 90 | 1005.6 |
| 20260902235007 | 59 | 96 | 0.0 | 3.5 | 0.03 | 0.06 | 0.06 | 89 | 1005.8 |
| 20260902234511 | 60 | 144 | 0.9 | 3.5 | 0.03 | 0.05 | 0.05 | 88 | 1005.9 |
| 20260902234006 | 60 | 159 | 0.0 | 3.5 | 0.03 | 0.05 | 0.05 | 88 | 1005.6 |
| 20260902233506 | 60 | 39 | 1.7 | 3.5 | 0.03 | 0.05 | 0.05 | 87 | 1005.4 |
| 20260902233018 | 60 | 81 | 0.9 | 6.1 | 0.03 | 0.05 | 0.05 | 87 | 1005.4 |
| 20260902232512 | 60 | 82 | 1.7 | 6.1 | 0.02 | 0.04 | 0.04 | 86 | 1005.5 |
| 20260902232010 | 60 | 66 | 0.9 | 5.2 | 0.03 | 0.04 | 0.04 | 86 | 1005.5 |
| 20260902231533 | 60 | 93 | 0.0 | 3.5 | 0.03 | 0.04 | 0.04 | 85 | 1005.5 |
| 20260902231012 | 61 | 61 | 0.0 | 1.7 | 0.03 | 0.04 | 0.04 | 85 | 1005.5 |
| 20260902230514 | 61 | 115 | 0.0 | 3.5 | 0.02 | 0.03 | 0.03 | 83 | 1005.4 |
| 20260902230027 | 61 | 86 | 0.9 | 4.3 | 0.02 | 0.03 | 0.03 | 83 | 1005.3 |
| 20260902225514 | 61 | 99 | 1.7 | 4.3 | 0.03 | 0.03 | 0.03 | 83 | 1005.5 |
| 20260902225017 | 61 | 112 | 0.9 | 2.6 | 0.03 | 0.03 | 0.03 | 82 | 1005.5 |
| 20260902224530 | 62 | 71 | 0.9 | 2.6 | 0.02 | 0.02 | 0.02 | 81 | 1005.4 |
| 20260902224017 | 62 | 123 | 0.9 | 5.2 | 0.02 | 0.02 | 0.02 | 80 | 1005.4 |
| 20260902223507 | 62 | 133 | 0.9 | 5.2 | 0.02 | 0.02 | 0.02 | 79 | 1005.3 |
| 20260902223014 | 62 | 159 | 1.7 | 3.5 | 0.02 | 0.02 | 0.02 | 81 | 1005.2 |
| 20260902222506 | 62 | 157 | 1.7 | 7.0 | 0.02 | 0.02 | 0.02 | 79 | 1005.1 |
| 20260902222008 | 62 | 138 | 1.7 | 8.7 | 0.01 | 0.01 | 0.01 | 76 | 1005.1 |
| 20260902221527 | 63 | 181 | 3.5 | 8.7 | 0.01 | 0.01 | 0.01 | 76 | 1005.0 |
| 20260902221012 | 63 | 161 | 4.3 | 10.4 | 0.01 | 0.01 | 0.01 | 75 | 1005.0 |
| 20260902220512 | 64 | 165 | 4.3 | 10.4 | 0.01 | 0.01 | 0.01 | 75 | 1004.9 |
| 20260902220034 | 64 | 166 | 0.0 | 1.7 | 0.01 | 0.01 | 0.01 | 77 | 1005.0 |
| 20260902215514 | 64 | 187 | 0.9 | 7.0 | 0.00 | 0.00 | 0.00 | 76 | 1005.0 |
| 20260902215018 | 64 | 153 | 1.7 | 7.0 | 0.00 | 0.00 | 0.00 | 74 | 1005.1 |
| 20260902214538 | 64 | 128 | 0.9 | 7.0 | 0.00 | 0.00 | 0.00 | 73 | 1005.0 |
| 20260902214016 | 65 | 139 | 2.6 | 8.7 | 0.00 | 0.00 | 0.00 | 71 | 1005.1 |
| 20260902213519 | 65 | 174 | 3.5 | 11.3 | 0.00 | 0.00 | 0.00 | 70 | 1005.1 |
| 20260902213033 | 65 | 179 | 3.5 | 12.2 | 0.00 | 0.00 | 0.00 | 66 | 1005.0 |
| 20260902212508 | 65 | 194 | 5.2 | 12.2 | 0.00 | 0.00 | 0.00 | 65 | 1005.1 |
| 20260902212013 | 65 | 155 | 0.9 | 8.7 | 0.00 | 0.00 | 0.00 | 65 | 1005.1 |
| 20260902211524 | 65 | 142 | 3.5 | 10.4 | 0.00 | 0.00 | 0.00 | 64 | 1005.2 |
| 20260902211010 | 66 | 166 | 2.6 | 10.4 | 0.00 | 0.00 | 0.00 | 63 | 1005.2 |
| 20260902210510 | 66 | 127 | 4.3 | 10.4 | 0.00 | 0.00 | 0.00 | 62 | 1005.2 |
| 20260902210026 | 66 | 198 | 4.3 | 11.3 | 0.00 | 0.00 | 0.00 | 61 | 1005.1 |
| 20260902205514 | 66 | 143 | 3.5 | 11.3 | 0.00 | 0.00 | 0.00 | 61 | 1005.1 |
| 20260902205015 | 67 | 122 | 4.3 | 11.3 | 0.00 | 0.00 | 0.00 | 60 | 1005.1 |
| 20260902204530 | 67 | 171 | 5.2 | 14.8 | 0.00 | 0.00 | 0.00 | 59 | 1005.0 |
| 20260902204017 | 68 | 119 | 5.2 | 18.2 | 0.00 | 0.00 | 0.00 | 58 | 1005.0 |
| 20260902203504 | 68 | 144 | 6.1 | 18.2 | 0.00 | 0.00 | 0.00 | 56 | 1005.0 |
| 20260902203014 | 69 | 184 | 4.3 | 12.2 | 0.00 | 0.00 | 0.00 | 56 | 1005.0 |
| 20260902202511 | 70 | 333 | 2.6 | 7.8 | 0.00 | 0.00 | 0.00 | 54 | 1005.0 |
| 20260902202008 | 70 | 113 | 1.7 | 5.2 | 0.00 | 0.00 | 0.00 | 54 | 1005.0 |
| 20260902201518 | 70 | 143 | 0.9 | 6.1 | 0.00 | 0.00 | 0.00 | 55 | 1004.9 |
| 20260902201008 | 70 | 140 | 0.9 | 6.1 | 0.00 | 0.00 | 0.00 | 56 | 1005.0 |
| 20260902200511 | 69 | 132 | 1.7 | 7.0 | 0.00 | 0.00 | 0.00 | 54 | 1005.0 |
| 20260902200023 | 70 | 123 | 2.6 | 7.0 | 0.00 | 0.00 | 0.00 | 54 | 1005.0 |
| 20260902195502 | 70 | 98 | 2.6 | 6.1 | 0.00 | 0.00 | 0.00 | 55 | 1005.1 |
| 20260902195005 | 70 | 109 | 2.6 | 6.1 | 0.00 | 0.00 | 0.00 | 55 | 1005.1 |
| 20260902194508 | 69 | 50 | 0.9 | 7.0 | 0.00 | 0.00 | 0.00 | 56 | 1005.2 |
| 20260902194008 | 69 | 77 | 0.9 | 7.8 | 0.00 | 0.00 | 0.00 | 56 | 1005.2 |
| 20260902193505 | 69 | 155 | 2.6 | 7.0 | 0.00 | 0.00 | 0.00 | 55 | 1005.2 |
| 20260902193012 | 69 | 23 | 0.9 | 3.5 | 0.00 | 0.00 | 0.00 | 57 | 1005.3 |
| 20260902192503 | 69 | 55 | 1.7 | 7.8 | 0.00 | 0.00 | 0.00 | 57 | 1005.4 |
| 20260902192007 | 69 | 70 | 3.5 | 7.8 | 0.00 | 0.00 | 0.00 | 55 | 1005.5 |
| 20260902191513 | 69 | 98 | 2.6 | 7.8 | 0.00 | 0.00 | 0.00 | 57 | 1005.6 |
| 20260902191012 | 69 | 102 | 2.6 | 7.8 | 0.00 | 0.00 | 0.00 | 56 | 1005.6 |
| 20260902190510 | 69 | 129 | 2.6 | 7.0 | 0.00 | 0.00 | 0.00 | 57 | 1005.7 |
| 20260902190024 | 69 | 159 | 1.7 | 7.0 | 0.00 | 0.00 | 0.00 | 58 | 1005.6 |
| 20260902185512 | 69 | 120 | 2.6 | 7.0 | 0.00 | 0.00 | 0.00 | 57 | 1005.7 |
| 20260902185012 | 69 | 89 | 1.7 | 7.0 | 0.00 | 0.00 | 0.00 | 57 | 1005.8 |
| 20260902184504 | 69 | 210 | 1.7 | 6.1 | 0.00 | 0.00 | 0.00 | 57 | 1005.9 |
| 20260902184003 | 69 | 11 | 2.6 | 6.1 | 0.00 | 0.00 | 0.00 | 57 | 1006.0 |
| 20260902183504 | 69 | 138 | 1.7 | 5.2 | 0.00 | 0.00 | 0.00 | 57 | 1006.0 |
| 20260902183006 | 69 | 150 | 1.7 | 5.2 | 0.00 | 0.00 | 0.00 | 58 | 1006.1 |
| 20260902182503 | 69 | 141 | 1.7 | 6.1 | 0.00 | 0.00 | 0.00 | 57 | 1006.1 |
| 20260902182004 | 69 | 67 | 1.7 | 7.8 | 0.00 | 0.00 | 0.00 | 57 | 1006.1 |
| 20260902181513 | 69 | 123 | 2.6 | 8.7 | 0.00 | 0.00 | 0.00 | 59 | 1006.1 |
| 20260902181007 | 69 | 96 | 2.6 | 10.4 | 0.00 | 0.00 | 0.00 | 59 | 1006.1 |
| 20260902180508 | 68 | 143 | 2.6 | 10.4 | 0.00 | 0.00 | 0.00 | 61 | 1006.2 |
| 20260902180021 | 68 | 65 | 2.6 | 6.1 | 0.00 | 0.00 | 0.00 | 61 | 1006.2 |
| 20260902175508 | 68 | 105 | 1.7 | 7.8 | 0.00 | 0.00 | 0.00 | 60 | 1006.3 |
| 20260902175009 | 68 | 94 | 3.5 | 8.7 | 0.00 | 0.00 | 0.00 | 60 | 1006.3 |
| 20260902174532 | 68 | 61 | 2.6 | 8.7 | 0.00 | 0.00 | 0.00 | 60 | 1006.3 |
| 20260902174014 | 69 | 115 | 2.6 | 8.7 | 0.00 | 0.00 | 0.00 | 60 | 1006.3 |
| 20260902173512 | 69 | 107 | 1.7 | 8.7 | 0.00 | 0.00 | 0.00 | 61 | 1006.3 |
| 20260902173016 | 68 | 252 | 0.0 | 7.8 | 0.00 | 0.00 | 0.00 | 62 | 1006.2 |
| 20260902172505 | 68 | 87 | 3.5 | 7.8 | 0.00 | 0.00 | 0.00 | 62 | 1006.4 |
| 20260902172003 | 68 | 58 | 1.7 | 8.7 | 0.00 | 0.00 | 0.00 | 62 | 1006.5 |
| 20260902171509 | 68 | 57 | 2.6 | 8.7 | 0.00 | 0.00 | 0.00 | 62 | 1006.5 |
| 20260902171006 | 68 | 96 | 3.5 | 8.7 | 0.00 | 0.00 | 0.00 | 62 | 1006.5 |
| 20260902170510 | 68 | 123 | 0.9 | 7.0 | 0.00 | 0.00 | 0.00 | 63 | 1006.5 |
| 20260902170018 | 68 | 84 | 3.5 | 7.0 | 0.00 | 0.00 | 0.00 | 64 | 1006.6 |
| 20260902165508 | 67 | 67 | 1.7 | 7.0 | 0.00 | 0.00 | 0.00 | 65 | 1006.6 |
| 20260902165011 | 67 | 131 | 0.9 | 8.7 | 0.00 | 0.00 | 0.00 | 67 | 1006.7 |
| 20260902164527 | 66 | 69 | 2.6 | 8.7 | 0.00 | 0.00 | 0.00 | 68 | 1006.7 |
| 20260902164012 | 65 | 57 | 0.9 | 7.8 | 0.00 | 0.00 | 0.00 | 72 | 1006.8 |
| 20260902163513 | 64 | 51 | 1.7 | 7.8 | 0.00 | 0.00 | 0.00 | 72 | 1006.8 |
| 20260902163027 | 64 | 93 | 1.7 | 6.1 | 0.00 | 0.00 | 0.00 | 77 | 1006.9 |
| 20260902162514 | 64 | 121 | 2.6 | 6.1 | 0.00 | 0.00 | 0.00 | 76 | 1007.0 |
| 20260902162005 | 63 | 74 | 1.7 | 6.1 | 0.00 | 0.00 | 0.00 | 78 | 1007.0 |
| 20260902161526 | 63 | 36 | 1.7 | 3.5 | 0.00 | 0.00 | 0.00 | 80 | 1007.1 |
| 20260902161004 | 62 | 128 | 1.7 | 6.1 | 0.00 | 0.00 | 0.00 | 81 | 1007.1 |
| 20260902160504 | 62 | 155 | 2.6 | 6.1 | 0.00 | 0.00 | 0.00 | 84 | 1007.2 |
| 20260902160013 | 61 | 116 | 0.9 | 2.6 | 0.00 | 0.00 | 0.00 | 85 | 1007.3 |
| 20260902155509 | 61 | 117 | 0.9 | 1.7 | 0.00 | 0.00 | 0.00 | 86 | 1007.3 |
| 20260902155011 | 60 | 124 | 0.9 | 2.6 | 0.00 | 0.00 | 0.00 | 87 | 1007.3 |
| 20260902154524 | 59 | 48 | 0.9 | 2.6 | 0.00 | 0.00 | 0.00 | 89 | 1007.3 |
| 20260902154012 | 59 | 122 | 0.0 | 2.6 | 0.00 | 0.00 | 0.00 | 89 | 1007.5 |
| 20260902153513 | 59 | 79 | 0.9 | 2.6 | 0.00 | 0.00 | 0.00 | 89 | 1007.5 |
| 20260902153026 | 59 | 94 | 0.9 | 2.6 | 0.00 | 0.00 | 0.00 | 89 | 1007.5 |
| 20260902152511 | 59 | 119 | 0.0 | 2.6 | 0.00 | 0.00 | 0.00 | 89 | 1007.6 |
| 20260902152013 | 59 | 78 | 0.9 | 2.6 | 0.00 | 0.00 | 0.00 | 89 | 1007.7 |
| 20260902151530 | 59 | 68 | 0.9 | 2.6 | 0.00 | 0.00 | 0.00 | 89 | 1007.7 |
| 20260902151016 | 58 | 88 | 0.9 | 2.6 | 0.00 | 0.00 | 0.00 | 90 | 1007.8 |
| 20260902150503 | 58 | 92 | 0.9 | 3.5 | 0.00 | 0.00 | 0.00 | 90 | 1007.9 |
| 20260902150012 | 58 | 82 | 1.7 | 3.5 | 0.00 | 0.00 | 0.00 | 90 | 1007.9 |
| 20260902145507 | 58 | 71 | 1.7 | 4.3 | 0.00 | 0.00 | 0.00 | 90 | 1008.1 |
| 20260902145009 | 58 | 119 | 0.9 | 5.2 | 0.00 | 0.00 | 0.00 | 91 | 1008.1 |
| 20260902144518 | 58 | 81 | 1.7 | 5.2 | 0.00 | 0.00 | 0.00 | 91 | 1008.1 |
| 20260902144008 | 58 | 60 | 0.9 | 2.6 | 0.00 | 0.00 | 0.00 | 91 | 1008.2 |
| 20260902143512 | 58 | 110 | 0.9 | 1.7 | 0.00 | 0.00 | 0.00 | 92 | 1008.2 |
| 20260902143027 | 57 | 133 | 0.9 | 1.7 | 0.00 | 0.00 | 0.00 | 91 | 1008.2 |
| 20260902142512 | 57 | 96 | 0.9 | 3.5 | 0.00 | 0.00 | 0.00 | 91 | 1008.2 |
| 20260902142012 | 57 | 125 | 0.9 | 3.5 | 0.00 | 0.00 | 0.00 | 91 | 1008.3 |
| 20260902141528 | 57 | 68 | 0.9 | 2.6 | 0.00 | 0.00 | 0.00 | 91 | 1008.2 |
| 20260902141015 | 57 | 121 | 0.9 | 2.6 | 0.00 | 0.00 | 0.00 | 91 | 1008.3 |
| 20260902140516 | 57 | 102 | 0.0 | 2.6 | 0.00 | 0.00 | 0.00 | 91 | 1008.2 |
| 20260902140038 | 57 | 96 | 0.9 | 2.6 | 0.00 | 0.00 | 0.00 | 91 | 1008.2 |
| 20260902135518 | 57 | 95 | 0.0 | 1.7 | 0.00 | 0.00 | 0.00 | 91 | 1008.1 |
| 20260902135004 | 58 | 104 | 0.0 | 2.6 | 0.00 | 0.00 | 0.00 | 91 | 1008.2 |
| 20260902134516 | 58 | 71 | 0.0 | 2.6 | 0.00 | 0.00 | 0.00 | 91 | 1008.2 |
| 20260902134008 | 58 | 80 | 0.9 | 5.2 | 0.00 | 0.00 | 0.00 | 91 | 1008.2 |
| 20260902133508 | 58 | 96 | 2.6 | 5.2 | 0.00 | 0.00 | 0.00 | 91 | 1008.3 |
| 20260902133027 | 58 | 62 | 0.9 | 3.5 | 0.00 | 0.00 | 0.00 | 91 | 1008.3 |
| 20260902132514 | 58 | 128 | 0.9 | 3.5 | 0.00 | 0.00 | 0.00 | 91 | 1008.3 |
| 20260902132013 | 58 | 59 | 1.7 | 3.5 | 0.00 | 0.00 | 0.00 | 91 | 1008.3 |
| 20260902131535 | 58 | 82 | 0.9 | 3.5 | 0.00 | 0.00 | 0.00 | 91 | 1008.4 |
| 20260902131015 | 58 | 109 | 0.0 | 5.2 | 0.00 | 0.00 | 0.00 | 91 | 1008.4 |
| 20260902130514 | 58 | 103 | 2.6 | 5.2 | 0.00 | 0.00 | 0.00 | 91 | 1008.5 |
| 20260902130030 | 58 | 128 | 1.7 | 4.3 | 0.00 | 0.00 | 0.00 | 91 | 1008.5 |
| 20260902125519 | 58 | 83 | 0.0 | 5.2 | 0.00 | 0.00 | 0.00 | 91 | 1008.6 |
| 20260902125020 | 58 | 42 | 0.9 | 5.2 | 0.00 | 0.00 | 0.00 | 91 | 1008.6 |
| 20260902124534 | 58 | 5 | 0.9 | 3.5 | 0.00 | 0.00 | 0.00 | 91 | 1008.6 |
| 20260902124011 | 58 | 66 | 1.7 | 5.2 | 0.00 | 0.00 | 0.00 | 91 | 1008.6 |
| 20260902123507 | 58 | 82 | 0.9 | 5.2 | 0.00 | 0.00 | 0.00 | 91 | 1008.7 |
| 20260902123020 | 58 | 10 | 0.9 | 3.5 | 0.00 | 0.00 | 0.00 | 90 | 1008.6 |
| 20260902122513 | 58 | 75 | 0.9 | 3.5 | 0.00 | 0.00 | 0.00 | 90 | 1008.6 |
| 20260902122011 | 58 | 59 | 0.0 | 2.6 | 0.00 | 0.00 | 0.00 | 90 | 1008.6 |
| 20260902121524 | 58 | 84 | 0.9 | 2.6 | 0.00 | 0.00 | 0.00 | 90 | 1008.7 |
| 20260902121012 | 58 | 94 | 0.9 | 3.5 | 0.00 | 0.00 | 0.00 | 90 | 1008.7 |
| 20260902120515 | 58 | 76 | 1.7 | 2.6 | 0.00 | 0.00 | 0.00 | 90 | 1008.8 |
| 20260902120028 | 58 | 109 | 0.0 | 4.3 | 0.00 | 0.00 | 0.00 | 90 | 1008.8 |
| 20260902115518 | 58 | 111 | 0.9 | 4.3 | 0.00 | 0.00 | 0.00 | 89 | 1008.8 |
| 20260902115014 | 58 | 69 | 1.7 | 3.5 | 0.00 | 0.00 | 0.00 | 89 | 1008.8 |
| 20260902114602 | 58 | 84 | 0.0 | 2.6 | 0.00 | 0.00 | 0.00 | 89 | 1008.8 |
| 20260902114014 | 58 | 91 | 0.0 | 4.3 | 0.00 | 0.00 | 0.00 | 89 | 1008.8 |
| 20260902113502 | 58 | 85 | 0.0 | 4.3 | 0.00 | 0.00 | 0.00 | 89 | 1008.9 |
| 20260902113004 | 58 | 55 | 0.9 | 3.5 | 0.00 | 0.00 | 0.00 | 89 | 1008.9 |
| 20260902112502 | 59 | 36 | 1.7 | 3.5 | 0.00 | 0.00 | 0.00 | 89 | 1008.9 |
| 20260902112005 | 59 | 89 | 1.7 | 7.0 | 0.00 | 0.00 | 0.00 | 89 | 1008.9 |
| 20260902111504 | 59 | 86 | 1.7 | 7.0 | 0.00 | 0.00 | 0.00 | 88 | 1009.0 |
| 20260902111004 | 59 | 48 | 1.7 | 5.2 | 0.00 | 0.00 | 0.00 | 88 | 1009.0 |
| 20260902110503 | 59 | 59 | 0.9 | 5.2 | 0.00 | 0.00 | 0.00 | 88 | 1009.1 |
| 20260902110007 | 59 | 82 | 1.7 | 4.3 | 0.00 | 0.00 | 0.00 | 88 | 1009.1 |
| 20260902105503 | 59 | 88 | 1.7 | 9.6 | 0.00 | 0.00 | 0.00 | 88 | 1009.1 |
| 20260902105005 | 59 | 105 | 1.7 | 9.6 | 0.00 | 0.00 | 0.00 | 88 | 1009.2 |
| 20260902104507 | 59 | 73 | 2.6 | 7.0 | 0.00 | 0.00 | 0.00 | 88 | 1009.2 |
| 20260902104003 | 59 | 97 | 0.9 | 7.0 | 0.00 | 0.00 | 0.00 | 88 | 1009.3 |
| 20260902103502 | 59 | 130 | 1.7 | 5.2 | 0.00 | 0.00 | 0.00 | 88 | 1009.3 |
| 20260902103004 | 59 | 126 | 0.9 | 5.2 | 0.00 | 0.00 | 0.00 | 88 | 1009.3 |
| 20260902102502 | 59 | 112 | 1.7 | 3.5 | 0.00 | 0.00 | 0.00 | 88 | 1009.3 |
| 20260902102002 | 59 | 53 | 0.9 | 3.5 | 0.00 | 0.00 | 0.00 | 88 | 1009.3 |
| 20260902101503 | 60 | 105 | 1.7 | 5.2 | 0.00 | 0.00 | 0.00 | 88 | 1009.3 |
| 20260902101002 | 60 | 110 | 0.9 | 5.2 | 0.00 | 0.00 | 0.00 | 88 | 1009.4 |
| 20260902100502 | 60 | 49 | 0.9 | 5.2 | 0.00 | 0.00 | 0.00 | 87 | 1009.3 |
| 20260902100006 | 60 | 61 | 1.7 | 4.3 | 0.00 | 0.00 | 0.00 | 87 | 1009.4 |
| 20260902095504 | 60 | 113 | 0.9 | 3.5 | 0.00 | 0.00 | 0.00 | 87 | 1009.4 |
| 20260902095002 | 60 | 116 | 0.0 | 3.5 | 0.00 | 0.00 | 0.00 | 87 | 1009.4 |
| 20260902094507 | 60 | 78 | 0.9 | 5.2 | 0.00 | 0.00 | 0.00 | 87 | 1009.4 |
| 20260902094003 | 60 | 114 | 1.7 | 5.2 | 0.00 | 0.00 | 0.00 | 87 | 1009.5 |
| 20260902093503 | 60 | 52 | 1.7 | 6.1 | 0.00 | 0.00 | 0.00 | 87 | 1009.4 |
| 20260902093008 | 60 | 121 | 0.9 | 6.1 | 0.00 | 0.00 | 0.00 | 87 | 1009.4 |
| 20260902092504 | 60 | 97 | 1.7 | 3.5 | 0.00 | 0.00 | 0.00 | 87 | 1009.4 |
| 20260902092003 | 60 | 80 | 0.9 | 3.5 | 0.00 | 0.00 | 0.00 | 87 | 1009.6 |
| 20260902091504 | 60 | 77 | 1.7 | 5.2 | 0.00 | 0.00 | 0.00 | 87 | 1009.6 |
| 20260902091003 | 60 | 53 | 0.9 | 5.2 | 0.00 | 0.00 | 0.00 | 87 | 1009.7 |
| 20260902090503 | 60 | 121 | 1.7 | 3.5 | 0.00 | 0.00 | 0.00 | 86 | 1009.7 |
| 20260902090009 | 60 | 84 | 1.7 | 2.6 | 0.00 | 0.00 | 0.00 | 86 | 1009.7 |
| 20260902085502 | 60 | 74 | 0.9 | 2.6 | 0.00 | 0.00 | 0.00 | 86 | 1009.7 |
| 20260902085002 | 60 | 71 | 0.9 | 2.6 | 0.00 | 0.00 | 0.00 | 86 | 1009.8 |
| 20260902084510 | 60 | 63 | 0.0 | 2.6 | 0.00 | 0.00 | 0.00 | 86 | 1009.8 |
| 20260902084002 | 60 | 55 | 0.0 | 2.6 | 0.00 | 0.00 | 0.00 | 86 | 1010.0 |
| 20260902083503 | 60 | 13 | 0.9 | 2.6 | 0.00 | 0.00 | 0.00 | 86 | 1010.0 |
| 20260902083006 | 60 | 22 | 0.9 | 2.6 | 0.00 | 0.00 | 0.00 | 86 | 1010.1 |
| 20260902082503 | 60 | 58 | 0.0 | 2.6 | 0.00 | 0.00 | 0.00 | 86 | 1010.0 |
| 20260902082005 | 60 | 51 | 0.9 | 2.6 | 0.00 | 0.00 | 0.00 | 86 | 1010.0 |
| 20260902081509 | 60 | 51 | 0.9 | 2.6 | 0.00 | 0.00 | 0.00 | 86 | 1010.0 |
| 20260902081010 | 60 | 51 | 0.0 | 3.5 | 0.00 | 0.00 | 0.00 | 86 | 1010.1 |
| 20260902080504 | 60 | 87 | 0.9 | 3.5 | 0.00 | 0.00 | 0.00 | 86 | 1010.1 |
| 20260902080007 | 60 | 75 | 0.9 | 2.6 | 0.00 | 0.00 | 0.00 | 86 | 1010.1 |
| 20260902075503 | 60 | 85 | 0.9 | 6.1 | 0.00 | 0.00 | 0.00 | 86 | 1010.1 |
| 20260902075004 | 60 | 58 | 0.9 | 6.1 | 0.00 | 0.00 | 0.00 | 86 | 1010.2 |